CanjetBLOCKVirtuelBLOCKQcBLOCKBLOCKBLOCKBLOCKBLOCKBLOCKBLOCKBLOCKBLOCKBLOCKBLOCKvolsBLOCKavecBLOCKFS-kACARS2020-02-27BLOCK11colon34pm

volsBLOCKBLOCKBLOCKBLOCKBLOCKpilotesBLOCKBLOCKBLOCKBLOCKBLOCKBLOCKBLOCKBLOCKtypeBLOCKBLOCKdepBLOCKBLOCKarrBLOCKBLOCKBLOCKBLOCKBLOCKaltBLOCKBLOCKBLOCKBLOCKBLOCKgsBLOCKBLOCKBLOCKBLOCKstatut

CJA1187LucBLOCKBB738CYUL-TJSJ0ft0ktsarrived
CJA1864ClaudeBLOCKLB738CYVR-PHNL6946ft294kts07colon34am









BLOCKAppuyerBLOCKsurBLOCKF5BLOCKpourBLOCKactualiserBLOCKBLOCKBLOCKMiseBLOCKaBLOCKjourcolonBLOCK23colon34colon54pmCanjetBLOCKvirtuelBLOCKQC

Tour du Canada

Publié par Michel Ayotte le 2020-02-09

 


 



 



Canjetvirtuel-Québec a le plaisir de vous proposer 15 étapes de vols pour le tour du Canada.

Vous gérez vos vols avec Kacar. Il n'y a pas de limite de temps.

Vous pouvez être sur Vatsim ou pas.

Surveillez vos courriels pour les 15 étapes.

Bon vol à tous.

 

Un merci spécial à Stéphane Gaouette pour son initiative et son implication.

Vous trouverez votre place comme pilote chez nous!


Microsoft flight sim 2020

Publié par Yvan Roy le 2019-06-25

 

Microsoft flight simulator 2020 encore plus fort sera disponible pour votre PC au début 2020 .

 

https://www.flightsimulator.com/
 

                                                   

 




Bienvenue chez Canjetvirtuel-Q

Publié par Michel Ayotte le 2013-06-14

 

Canjetvirtuel-Québec est une compagnie aérienne virtuelle qui a été fondée par 2 passionnés de la simulation de vol.

Elle est opérée avec les Boeing 737. Exceptionnelement et pour votre plaisir les Boeing 747,757,767 et 777 sont autorisés pour des vols de plus de 1,5 heure.

Ces appareils pouvant faire des vols cargos ou des vols passagers,que ce soit au Canada, Europe, États-Unis, Mexique et Caraïbes.

Vous trouverez votre place comme pilote chez nous!



Avis

Aux fins de la simulation de vol seulement. CanjetVirtuel Québec n'est en aucun cas affilié avec n'importe quelle compagnie aérienne du monde réel. CanjetVirtuel Québec est un site à but non lucratif gérée par des amateurs de simulation de vol. Toutes les images sont la propriété exclusive de leurs propriétaires respectifs.
| propulsé par phpVMS, © 2013-2019.

Notice

For flight simulation purposes only. CanjetVirtuel Quebec is in no way affiliated with any real world airline. CanjetVirtuel Quebec is a non-profit site run by flight simulation enthusiasts. All images are the sole property of their respective owners.
| powered by phpVMS, © 2013-2019.

Affiliations

Vatsim

Les statistiques du site

Nombre de pilotes: 16
Total des vols effectués: 5432
Trajets disponibles: 543
Passagers transportés: 958649
Total des heures de vol: 17103
Distance totale (NM): 6666817
Pilotes en ligne: 0

Nouvelles

Tour du Canada
02/09/2020
Microsoft flight sim 2020
06/25/2019
Bienvenue chez Canjetvirtuel-Q
06/14/2013

METAR

CYHZ 280400Z 24014G21KT 15SM SCT006 OVC035 01/01 A2930 RMK SF4SC4 SLP928

CYQB 280400Z 20008KT 5SM -SN FEW016 BKN024 OVC050 M06/M08 A2935 RMK CF2SC4SC2 /S04/ SLP944

CYUL 280400Z 25019G33KT 8SM DRSN FEW025 SCT065 BKN130 M07/M11 A2941 RMK SC1SC2AC3 SLP964

CYYZ 280400Z 27018G28KT 15SM FEW021 SCT035 BKN120 M06/M10 A2963 RMK CF2SC2AC3 SLP045